Weather History for Eagle, CO

Change the Weather History Date:

Wednesday, October 2, 2013

  Actual Average Record
Temperature  
Mean Temperature 54 °F -  
Max Temperature 73 °F 71 °F 84 °F (1992)
Min Temperature 35 °F 31 °F 20 °F (1961)
Degree Days  
Heating Degree Days 11    
Growing Degree Days 4 (Base 50)    
Moisture  
Dew Point 28 °F    
Average Humidity 51    
Maximum Humidity 81    
Minimum Humidity 14    
Precipitation  
Precipitation 0.00 in - - ()
Sea Level Pressure  
Sea Level Pressure 30.08 in    
Wind  
Wind Speed 3 mph (SE)    
Max Wind Speed 20 mph    
Max Gust Speed 28 mph    
Visibility 10 miles    
Events      
Averages and records for this station are not official NWS values.
T = Trace of Precipitation, MM = Missing Value Source: NWS Daily Summary

Daily Weather History Graph

Daily Weather History Graph

Search for Another Location

Airport:

Trip Planner

Search our weather history database for the weather conditions in past years. The results will help you decide how hot, cold, wet, or windy it might be!

Date:

Astronomy

Oct. 02, 2013 Rise Set
Actual Time 7:05 AM MDT 6:47 PM MDT
Civil Twilight 6:38 AM MDT 7:14 PM MDT
Nautical Twilight 6:06 AM MDT 7:46 PM MDT
Astronomical Twilight 5:35 AM MDT 8:17 PM MDT
Moon 4:41 AM MDT (10/2) 5:25 PM MDT (10/2)
Length of Visible Light 12h 36m
Length of Day
11h 42m
Waning Crescent, 6% of the Moon is Illuminated
Oct 2
Waning Crescent
Oct 4
New
Oct 11
First Quarter
Oct 18
Full
Oct 26
Last Quarter

Hourly Weather History & Observations

Time (MDT) Temp. Windchill Dew Point Humidity Pressure Visibility Wind Dir Wind Speed Gust Speed Precip Events Conditions
12:15 AM 44.6 °F - 30.2 °F 57% 30.13 in 10.0 mi Calm Calm - N/A   Clear
12:35 AM 44.6 °F - 30.2 °F 57% 30.13 in 10.0 mi Calm Calm - N/A   Clear
12:55 AM 44.6 °F - 30.2 °F 57% 30.13 in 10.0 mi Calm Calm - N/A   Clear
1:15 AM 44.6 °F - 30.2 °F 57% 30.13 in 9.0 mi Calm Calm - N/A   Clear
1:35 AM 42.8 °F - 32.0 °F 66% 30.14 in 10.0 mi Calm Calm - N/A   Clear
1:55 AM 42.8 °F 40.1 °F 30.2 °F 61% 30.14 in 10.0 mi SE 4.6 mph - N/A   Clear
2:15 AM 42.8 °F - 30.2 °F 61% 30.14 in 10.0 mi Calm Calm - N/A   Clear
2:35 AM 41.0 °F 39.0 °F 30.2 °F 65% 30.14 in 10.0 mi ESE 3.5 mph - N/A   Clear
2:55 AM 41.0 °F 39.0 °F 30.2 °F 65% 30.14 in 10.0 mi SE 3.5 mph - N/A   Clear
3:15 AM 39.2 °F 37.0 °F 30.2 °F 70% 30.13 in 10.0 mi East 3.5 mph - N/A   Clear
3:35 AM 39.2 °F 35.0 °F 30.2 °F 70% 30.14 in 10.0 mi ESE 5.8 mph - N/A   Clear
3:55 AM 39.2 °F 37.0 °F 30.2 °F 70% 30.14 in 10.0 mi SE 3.5 mph - N/A   Clear
4:15 AM 37.4 °F - 30.2 °F 75% 30.14 in 10.0 mi Calm Calm - N/A   Clear
4:35 AM 37.4 °F - 30.2 °F 75% 30.15 in 10.0 mi Calm Calm - N/A   Clear
4:55 AM 37.4 °F - 30.2 °F 75% 30.15 in 10.0 mi Calm Calm - N/A   Clear
5:15 AM 37.4 °F 34.9 °F 30.2 °F 75% 30.15 in 10.0 mi ESE 3.5 mph - N/A   Clear
5:35 AM 35.6 °F 32.8 °F 30.2 °F 81% 30.15 in 10.0 mi East 3.5 mph - N/A   Clear
5:55 AM 35.6 °F - 28.4 °F 75% 30.15 in 10.0 mi North - - N/A   Clear
6:15 AM 35.6 °F - 28.4 °F 75% 30.16 in 10.0 mi Calm Calm - N/A   Clear
6:35 AM 35.6 °F - 28.4 °F 75% 30.17 in 10.0 mi Calm Calm - N/A   Clear
6:50 AM 35.6 °F - 28.4 °F 75% 30.17 in 10.0 mi Calm Calm - N/A   Partly Cloudy
6:55 AM 35.6 °F - 28.4 °F 75% 30.17 in 10.0 mi Calm Calm - N/A   Clear
7:50 AM 35.6 °F - 30.2 °F 81% 30.18 in 10.0 mi Calm Calm - N/A   Partly Cloudy
8:50 AM 39.2 °F - 30.2 °F 70% 30.19 in 10.0 mi Calm Calm - N/A   Partly Cloudy
9:50 AM 46.4 °F - 32.0 °F 57% 30.18 in 10.0 mi Calm Calm - N/A   Partly Cloudy
10:50 AM 51.8 °F - 30.2 °F 44% 30.16 in 10.0 mi Calm Calm - N/A   Partly Cloudy
11:50 AM - - - N/A% - 10.0 mi Calm Calm - N/A   Partly Cloudy
12:50 PM - - - N/A% - 10.0 mi Calm Calm - N/A   Partly Cloudy
1:25 PM 69.8 °F - 23.0 °F 17% 30.05 in 10.0 mi WSW 13.8 mph - N/A   Partly Cloudy
1:50 PM 71.6 °F - 21.2 °F 15% 30.02 in 10.0 mi SW 17.3 mph 23.0 mph N/A   Partly Cloudy
2:50 PM 73.4 °F - 21.2 °F 14% 30.00 in 10.0 mi SSW 11.5 mph 24.2 mph N/A   Partly Cloudy
3:50 PM 73.4 °F - 21.2 °F 14% 29.98 in 10.0 mi WSW 18.4 mph 27.6 mph N/A   Partly Cloudy
4:50 PM 71.6 °F - 21.2 °F 15% 29.97 in 10.0 mi SW 19.6 mph 24.2 mph N/A   Scattered Clouds
5:50 PM 69.8 °F - 23.0 °F 17% 29.97 in 10.0 mi SW 16.1 mph 23.0 mph N/A   Scattered Clouds
6:50 PM 66.2 °F - 24.8 °F 21% 29.98 in 10.0 mi SW 10.4 mph - N/A   Partly Cloudy
7:15 PM 64.4 °F - 24.8 °F 22% 29.98 in 10.0 mi SW 9.2 mph - N/A   Clear
7:35 PM 62.6 °F - 24.8 °F 24% 29.99 in 10.0 mi SSW 5.8 mph - N/A   Clear
7:55 PM 60.8 °F - 26.6 °F 27% 29.99 in 10.0 mi SSW 6.9 mph - N/A   Clear
8:15 PM 57.2 °F - 26.6 °F 31% 30.00 in 10.0 mi Calm Calm - N/A   Clear
8:35 PM 57.2 °F - 26.6 °F 31% 30.00 in 10.0 mi Calm Calm - N/A   Clear
8:55 PM 57.2 °F - 26.6 °F 31% 30.01 in 10.0 mi ESE 4.6 mph - N/A   Clear
9:15 PM 53.6 °F - 28.4 °F 38% 30.01 in 10.0 mi East 6.9 mph - N/A   Clear
9:35 PM 51.8 °F - 28.4 °F 41% 30.00 in 10.0 mi ESE 6.9 mph - N/A   Clear
9:55 PM 51.8 °F - 30.2 °F 44% 30.01 in 10.0 mi East 5.8 mph - N/A   Clear
10:15 PM 50.0 °F - 30.2 °F 47% 30.01 in 10.0 mi East 10.4 mph - N/A   Clear
10:35 PM 48.2 °F - 30.2 °F 50% 30.01 in 10.0 mi East 11.5 mph - N/A   Clear
10:55 PM 48.2 °F - 30.2 °F 50% 30.01 in 10.0 mi East 10.4 mph - N/A   Clear
11:15 PM 48.2 °F - 30.2 °F 50% 30.01 in 10.0 mi ESE 8.1 mph - N/A   Clear
11:35 PM 46.4 °F 42.9 °F 30.2 °F 53% 30.00 in 10.0 mi East 6.9 mph - N/A   Clear
11:55 PM 46.4 °F 41.9 °F 30.2 °F 53% 29.99 in 10.0 mi ENE 9.2 mph - N/A   Clear